Location: Sawmill Trailhead
(33.5800°N, 116.4497°W)
Time: 03:48:54
(UTC-07:00)

Hubble Space Telescope - Visible Passes

Search period start: 20 April 2019 00:00
Search period end: 30 April 2019 00:00
Orbit: 537 x 540 km, 28.5° (Epoch: 20 April)

Date Brightness Start Highest point End Pass type
(mag) Time Alt. Az. Time Alt. Az. Time Alt. Az.
23 Apr 3.1 04:15:09 12° SSE 04:15:09 12° SSE 04:16:43 10° SE visible
24 Apr 3.0 04:05:09 15° SE 04:05:09 15° SE 04:06:48 10° ESE visible
25 Apr 3.0 03:55:08 16° SE 03:55:08 16° SE 03:56:38 10° ESE visible
25 Apr 1.7 05:30:39 10° WSW 05:34:28 36° S 05:38:18 10° ESE visible
26 Apr 3.1 03:45:05 16° SE 03:45:05 16° SE 03:46:21 10° ESE visible
26 Apr 1.6 05:20:25 12° WSW 05:23:56 39° S 05:27:48 10° ESE visible
27 Apr 3.2 03:35:03 15° ESE 03:35:03 15° ESE 03:35:59 10° ESE visible
27 Apr 1.5 05:10:23 15° WSW 05:13:23 40° S 05:17:17 10° ESE visible
28 Apr 3.4 03:25:01 13° ESE 03:25:01 13° ESE 03:25:36 10° ESE visible
28 Apr 1.4 05:00:21 19° WSW 05:02:51 41° S 05:06:45 10° ESE visible
29 Apr 3.6 03:15:02 11° ESE 03:15:02 11° ESE 03:15:08 10° ESE visible
29 Apr 1.4 04:50:22 24° WSW 04:52:18 40° S 04:56:12 10° ESE visible
